Theta_e
339 340 342 348 349 348 348 347 347 347 346 349 350 350 349 347 346 346 344 343 342 341 340 341 342 343 343 344 345 346 347 347 347 347 347 347 347 345 343 343 343 342 343 343 343 343 343 344 345 346 347 347 347 347 348 349 348 347 346 344 344 343 343 342 341 340 341 340 340 340 340 341 342 339 336 336 337 338 339 340 339 334 334 335 336
339 340 341 344 349 348 348 348 347 347 346 345 349 349 348 347 346 345 343 343 342 340 340 340 342 343 343 344 347 347 347 347 347 347 347 347 346 345 344 343 342 342 342 342 342 343 344 344 346 346 346 347 347 347 347 346 345 344 344 344 343 342 342 341 340 341 340 340 340 339 339 340 340 339 336 335 335 335 338 339 339 331 331 338 340
340 340 342 344 349 348 348 348 347 346 345 345 344 344 346 346 345 343 343 343 342 341 340 340 341 342 342 344 348 347 347 347 347 347 347 347 346 346 344 344 343 342 342 343 344 343 344 345 347 347 347 347 347 347 345 345 344 343 342 341 341 341 341 341 340 340 340 340 342 342 339 339 338 338 334 335 335 333 337 334 337 336 331 337 336
339 340 342 345 348 348 349 347 347 346 345 345 345 344 344 345 344 343 343 342 341 339 341 341 341 342 342 346 348 347 347 347 347 347 347 346 347 346 345 345 345 345 346 347 347 345 345 346 347 347 346 344 344 345 345 342 342 341 342 341 340 339 340 341 341 340 339 339 339 337 332 329 334 336 337 339 341 341 340 334 334 334 333 334 335
339 340 342 344 345 347 348 348 346 346 345 345 344 344 344 344 343 343 343 342 340 340 343 342 340 342 343 348 348 347 347 346 346 346 347 346 346 347 346 346 347 346 346 347 347 346 346 346 346 345 346 344 344 344 343 343 343 341 341 342 340 337 338 339 339 339 339 338 337 333 325 327 331 337 338 337 339 339 340 340 339 336 334 332 334
339 341 342 343 343 345 348 348 347 346 345 345 344 343 343 343 343 343 343 341 339 342 344 343 340 343 344 347 348 347 347 346 346 346 347 346 346 347 347 347 346 347 347 346 346 346 345 345 345 345 345 344 343 342 341 341 342 342 342 342 341 340 337 338 337 336 335 335 334 326 323 324 327 332 337 336 336 339 338 338 337 337 336 334 333
340 342 342 342 342 344 347 347 346 345 345 344 343 343 343 343 343 343 342 340 341 343 344 342 341 344 345 347 347 347 347 346 346 346 347 346 347 347 346 345 346 347 345 345 346 345 344 345 344 343 344 342 343 342 341 341 341 342 343 342 342 341 340 340 340 339 335 331 320 322 324 326 325 325 332 333 334 334 336 336 335 336 337 337 338
341 342 342 342 342 345 346 347 346 345 345 343 343 343 343 343 343 343 342 341 343 344 344 340 343 345 346 347 347 347 347 346 346 347 346 346 346 346 345 345 345 345 344 344 344 343 342 342 342 342 342 342 342 342 341 340 340 340 341 341 340 339 339 338 338 338 340 327 322 324 328 327 326 327 335 334 334 335 337 338 337 336 337 336 336
340 341 342 342 342 345 345 346 346 343 344 343 343 343 344 343 343 343 342 343 344 345 344 343 344 345 347 347 347 347 347 346 346 347 346 346 346 345 344 345 345 344 344 343 343 342 341 340 340 342 342 343 342 341 340 339 339 339 340 340 340 339 338 338 339 339 336 325 325 326 327 327 326 326 332 333 334 339 339 338 339 337 335 334 333
341 341 341 341 342 344 344 345 346 345 345 344 344 344 344 343 343 343 343 344 345 345 344 345 345 346 346 347 347 346 346 345 346 345 346 347 346 345 345 344 344 343 343 343 342 341 340 340 339 339 342 342 342 341 340 339 340 340 341 340 340 339 338 338 335 335 327 326 326 326 328 335 325 326 331 334 333 334 334 336 337 336 335 333 332
340 340 340 341 342 343 344 345 346 345 344 344 345 344 344 343 343 344 344 345 345 344 345 346 346 346 347 347 346 346 346 345 345 345 345 345 345 345 344 343 343 343 342 342 341 340 340 339 339 338 339 340 340 340 340 340 340 340 341 340 340 337 337 336 330 325 328 329 328 328 335 335 322 323 333 334 334 333 334 333 332 331 331 332 333
339 339 340 341 344 343 343 344 345 345 344 345 345 343 344 343 344 344 345 345 345 346 347 346 346 347 347 346 346 346 345 345 345 345 345 346 345 345 344 344 343 342 341 341 340 339 340 339 338 338 338 338 339 339 339 339 339 340 340 339 338 336 336 334 327 326 328 330 329 327 327 326 324 331 334 333 333 336 336 335 335 334 333 331 331
339 339 340 341 342 342 343 343 344 345 345 345 345 344 344 344 344 345 345 345 346 346 346 346 346 345 346 346 346 345 345 345 345 345 344 344 344 344 343 343 342 341 341 340 340 339 340 339 338 337 337 338 339 339 339 338 338 340 339 338 335 335 334 332 324 325 327 326 326 326 325 324 326 336 335 335 335 336 337 337 335 334 334 334 332
339 339 340 341 341 343 342 342 342 343 344 345 345 346 346 345 345 345 346 346 346 346 346 346 346 346 345 345 345 345 345 343 343 343 343 344 343 343 343 342 341 340 340 340 339 339 339 339 338 337 337 337 338 338 338 338 338 338 337 336 334 333 329 327 329 323 326 326 327 327 327 328 326 337 336 336 337 336 338 337 336 336 335 334 333
339 339 340 341 341 342 343 341 341 342 343 344 345 346 347 347 346 347 346 346 346 346 346 346 345 345 344 345 344 346 345 344 343 342 341 342 343 342 342 341 340 340 340 339 339 339 339 339 338 337 337 337 338 338 337 338 338 336 335 334 332 330 327 320 322 319 324 328 326 328 327 328 338 337 337 337 337 337 336 335 336 335 334 334 333
340 340 340 340 341 341 342 343 340 340 341 341 343 344 346 347 346 346 346 345 346 346 345 344 344 344 344 344 344 345 345 344 342 340 339 340 341 342 342 341 341 340 339 338 338 339 339 338 338 337 337 336 337 337 337 337 336 334 332 332 332 328 327 322 318 319 317 320 324 326 325 329 339 338 338 338 337 336 335 335 336 337 336 335 334
340 340 339 339 340 340 340 341 340 339 339 339 341 342 344 346 345 345 346 346 345 345 344 344 343 343 343 345 344 345 345 343 341 339 338 340 340 338 340 342 341 340 338 338 339 339 339 338 337 337 336 336 337 337 336 335 333 332 331 331 329 327 326 323 318 316 317 321 324 324 325 325 336 338 338 338 336 336 334 334 334 337 337 336 335
340 340 338 339 339 339 340 339 339 338 337 338 339 339 341 343 343 343 344 345 345 344 344 344 343 343 343 343 344 344 344 341 340 338 337 337 336 336 338 342 341 340 338 338 339 339 339 338 337 337 336 336 335 335 334 332 330 330 331 329 327 325 323 323 314 315 317 325 317 323 322 339 337 336 337 337 336 335 334 334 334 332 337 336 334
339 339 339 338 338 339 339 338 338 337 336 336 338 339 338 339 340 341 342 342 342 342 341 341 341 340 340 341 341 342 341 339 338 337 336 336 335 334 335 340 341 340 339 339 339 339 339 338 336 336 336 336 335 334 332 331 330 330 329 329 323 319 322 318 313 312 315 315 315 318 317 336 335 334 335 336 336 336 336 335 335 334 334 333 332
338 339 339 339 338 338 338 338 338 337 335 335 336 337 336 336 337 339 339 339 339 338 337 337 336 336 336 336 337 338 337 336 337 335 333 333 335 329 331 334 341 341 340 340 340 339 339 338 336 336 336 335 334 333 332 331 331 331 329 322 317 317 312 312 314 313 313 315 319 313 328 335 334 333 333 332 333 334 334 335 335 335 334 334 334
338 338 339 339 338 338 337 337 337 336 335 334 335 335 337 335 335 336 336 335 336 335 334 333 332 332 331 332 334 333 331 331 332 329 332 329 327 326 328 331 337 340 341 341 340 340 339 338 337 337 336 335 335 333 333 332 332 331 327 320 318 315 312 312 312 315 314 314 318 312 331 334 334 333 334 334 333 331 331 332 334 334 335 335 336
336 337 339 339 339 338 337 337 337 336 335 335 335 335 335 336 335 335 336 334 333 333 333 334 337 334 329 332 332 331 329 328 326 331 325 326 325 325 327 330 333 335 338 340 340 340 339 338 337 337 335 335 334 330 328 331 330 330 326 320 316 314 312 313 313 312 313 313 315 318 332 332 333 333 334 334 334 334 332 331 332 333 334 334 334
335 336 337 339 339 338 338 337 337 336 334 334 335 334 334 334 333 334 334 332 334 333 332 333 332 331 331 331 329 329 327 326 326 327 325 323 325 324 327 329 331 332 335 336 337 339 339 338 337 337 336 335 330 323 323 320 320 328 325 317 315 315 314 314 313 312 314 313 314 324 330 331 332 333 334 335 335 334 333 333 332 332 333 333 334
335 336 337 339 339 339 339 338 336 335 334 333 333 333 332 332 332 332 331 331 329 329 329 329 329 329 329 329 328 327 326 326 331 332 332 322 323 323 325 327 328 329 331 333 334 334 337 337 336 336 334 328 324 320 321 318 320 321 322 319 317 316 315 315 313 314 314 315 316 325 330 331 332 332 333 335 335 335 335 334 334 333 333 333 333
336 337 337 337 338 339 339 339 337 335 334 333 332 332 332 331 331 331 330 329 328 327 327 327 328 327 326 327 326 325 325 325 325 326 322 320 319 319 320 321 321 322 327 321 324 327 329 326 326 326 324 322 319 320 320 318 319 320 322 321 319 317 316 316 315 313 315 315 316 326 330 331 331 332 332 333 334 335 334 334 335 334 333 333 334
334 335 336 337 338 339 339 339 338 336 335 334 333 332 332 331 330 330 330 328 328 326 326 326 327 327 325 325 325 324 324 324 324 323 322 320 319 319 320 320 319 319 320 321 320 322 322 324 323 321 321 321 320 319 318 318 318 318 320 320 319 317 317 317 316 316 316 315 316 324 327 330 331 331 332 333 334 335 335 335 335 334 334 334 334
331 334 336 337 337 338 338 338 338 337 335 334 334 332 332 332 331 330 330 328 327 326 325 325 326 326 325 324 324 323 322 322 323 322 321 320 320 320 319 319 321 320 322 322 320 320 322 322 322 321 320 319 319 317 317 317 316 317 317 318 318 318 318 317 316 316 316 316 318 322 325 328 331 332 331 332 334 335 335 336 336 335 335 335 335
331 332 334 336 336 337 338 338 338 337 336 335 334 332 332 332 331 329 330 329 327 327 326 326 326 326 326 325 324 323 322 321 322 322 322 320 320 320 320 319 321 320 322 322 322 320 320 320 320 316 318 317 318 318 318 317 316 316 316 318 318 318 318 318 317 316 316 317 317 319 322 327 330 332 332 332 333 334 334 335 335 336 335 335 336
330 330 333 335 336 337 338 338 337 337 337 336 334 333 333 332 331 330 330 328 329 328 327 326 325 326 326 325 323 322 321 321 321 323 322 320 320 320 319 320 320 320 321 321 322 321 320 319 318 318 318 318 317 317 317 317 316 316 317 318 318 318 318 318 317 316 315 316 317 318 320 323 326 329 332 333 332 333 334 335 336 336 335 336 335
331 331 331 334 336 338 338 337 337 337 337 336 334 333 332 331 331 330 330 327 329 329 327 326 326 326 325 325 324 324 322 321 321 322 322 321 320 320 319 320 320 320 320 321 320 321 321 319 317 317 317 317 317 318 316 317 316 315 315 317 318 318 318 317 317 316 316 316 316 317 318 320 323 327 329 331 332 331 332 333 334 335 335 335 336
331 330 330 331 334 337 337 338 338 336 337 336 335 333 332 331 331 331 330 328 329 329 327 327 326 326 326 325 325 324 323 321 321 322 321 322 320 320 319 320 319 319 320 321 320 321 321 321 320 319 317 317 317 318 317 316 316 316 315 315 317 317 317 316 316 316 316 316 317 317 318 319 321 323 327 330 332 332 332 333 334 334 335 335 335
327 329 331 331 333 336 337 338 338 337 336 336 335 334 332 332 331 331 330 329 329 328 327 327 325 326 326 325 325 324 323 321 321 321 321 321 321 320 320 319 319 319 319 320 319 319 320 320 321 321 319 318 318 318 317 316 316 316 316 315 315 315 315 316 316 316 316 317 317 317 318 318 319 321 323 326 329 331 332 333 334 335 336 335 336
329 330 331 330 331 335 336 337 338 336 336 335 334 336 335 333 332 331 330 329 329 328 327 326 326 326 326 326 325 324 322 322 320 321 321 321 321 320 320 319 320 320 319 320 320 319 318 317 318 319 318 318 317 318 317 317 316 316 315 315 315 315 316 316 317 317 317 317 317 317 317 318 318 319 321 322 324 327 330 333 334 334 335 336 337
329 329 329 329 330 333 336 336 336 335 335 335 334 333 334 334 333 334 332 330 329 328 326 326 326 326 325 325 325 325 323 322 321 320 321 321 321 321 320 320 320 319 319 319 319 318 317 317 317 316 317 317 317 317 316 316 315 315 315 315 315 316 316 316 317 317 317 317 318 317 318 318 317 318 318 320 320 323 327 330 333 334 334 335 336
315 322 328 329 331 331 333 335 334 335 333 333 332 333 332 334 333 334 334 332 331 329 328 326 326 326 325 325 325 325 323 323 322 321 321 321 320 320 320 320 320 319 319 318 319 318 318 318 317 316 316 316 316 316 316 315 315 315 315 315 315 316 316 316 317 316 317 317 317 317 318 317 317 318 318 317 319 321 323 326 330 333 334 335 335
311 313 314 316 321 326 331 332 332 333 333 332 332 332 331 333 334 333 335 334 333 331 329 328 327 326 325 325 325 325 324 323 323 322 321 320 320 320 320 320 320 319 319 318 318 318 317 318 317 317 316 315 314 315 314 314 314 314 315 315 315 315 316 316 316 316 317 317 317 317 317 318 318 318 317 318 318 319 322 324 327 331 332 334 334
305 307 308 311 313 318 319 320 329 330 330 330 331 331 331 331 332 333 334 332 333 333 332 331 329 326 325 325 325 325 324 323 323 323 322 320 320 320 320 321 320 319 318 318 318 318 317 318 317 316 317 316 314 314 314 313 314 314 314 314 314 314 314 315 316 316 317 316 316 317 317 317 317 315 318 318 319 319 320 321 323 327 329 329 330
303 302 303 305 309 311 313 313 313 317 330 329 328 330 331 330 329 330 330 332 332 333 333 332 330 327 325 325 325 325 324 324 323 322 322 322 321 320 320 320 320 320 319 318 318 318 317 317 317 316 316 317 315 314 314 314 314 315 315 315 315 314 315 315 315 314 315 316 317 317 317 317 317 317 318 318 319 319 319 320 321 322 324 323 325
299 299 300 301 303 305 307 307 308 312 313 316 324 328 329 329 329 328 329 330 331 331 332 331 331 330 325 325 325 325 323 324 323 322 322 321 320 320 319 319 319 319 318 318 318 317 316 316 316 316 314 315 316 315 315 315 315 315 315 315 315 315 315 315 315 315 315 316 317 317 318 318 318 318 319 319 319 319 319 319 319 320 321 320 322
297 297 298 299 299 301 303 303 305 307 308 311 314 320 328 327 327 328 328 328 329 328 330 331 331 331 327 325 325 324 324 324 324 323 322 321 321 320 320 320 319 320 318 317 317 317 316 315 316 316 315 314 313 314 311 311 311 312 312 313 313 314 315 315 315 316 316 317 317 317 317 318 318 318 319 319 319 319 319 319 318 320 320 320 320
295 296 296 296 296 298 298 300 302 303 304 306 309 313 317 325 326 327 326 327 326 327 328 329 330 331 330 327 325 325 324 324 324 323 323 321 322 321 320 320 320 320 319 319 318 318 318 318 318 316 316 315 315 313 311 311 309 312 312 311 312 314 314 315 316 317 317 318 317 317 318 317 318 318 319 319 319 319 320 320 320 320 320 320 321
293 295 295 295 297 296 296 298 300 301 302 303 306 309 313 316 324 325 326 327 326 324 325 328 330 329 329 330 328 326 325 324 323 324 323 323 322 321 321 321 321 320 320 320 319 317 317 318 318 315 315 316 316 315 313 314 309 311 310 310 312 314 315 315 315 317 318 318 319 318 319 318 319 319 319 318 319 319 320 320 320 321 321 321 321
293 293 294 295 295 295 295 297 298 299 300 302 304 305 309 312 316 322 327 326 327 328 328 328 329 329 330 330 329 328 326 325 324 323 324 323 323 322 322 322 321 321 319 319 318 318 318 318 318 318 316 315 316 314 314 316 314 306 308 309 310 306 303 304 311 313 316 317 318 318 319 319 319 319 318 317 319 319 320 320 320 320 321 321 320
292 292 292 293 293 295 295 296 296 298 298 300 303 305 306 308 311 312 313 320 322 322 325 327 327 328 329 330 330 329 329 326 326 325 324 324 324 323 323 322 322 322 321 320 320 319 319 318 319 319 319 317 317 316 316 316 316 311 310 310 307 304 305 302 298 309 311 314 315 315 316 317 318 318 317 318 319 319 320 320 320 320 321 320 320
291 291 292 292 293 292 294 295 296 296 297 299 300 302 303 303 305 307 308 309 311 311 312 311 316 324 326 327 329 330 330 329 327 326 324 325 325 325 324 324 323 323 322 322 321 321 321 321 321 320 320 319 318 318 318 319 318 318 314 306 306 305 306 305 305 309 305 310 311 314 315 315 316 316 316 317 318 319 319 319 319 320 320 320 320
289 291 292 292 292 292 293 293 295 296 296 297 299 300 300 300 300 300 300 302 303 303 304 305 309 311 315 319 322 327 329 329 328 327 326 325 325 324 325 325 324 323 323 324 323 323 322 322 322 322 321 321 320 319 318 318 319 318 319 318 313 306 301 302 307 305 308 311 312 309 313 315 315 316 316 317 318 318 318 319 319 319 319 319 319
289 290 291 291 292 292 293 293 293 293 295 296 298 299 298 298 298 299 300 300 301 301 304 305 306 308 311 311 313 317 316 320 325 327 327 326 325 325 325 325 325 325 324 325 325 324 324 323 323 323 323 322 321 318 318 318 318 319 319 319 318 316 312 309 307 304 307 308 308 309 309 310 314 315 316 317 318 318 318 317 318 318 318 318 318
290 290 290 290 290 291 291 292 293 293 293 295 295 298 297 296 296 297 298 298 299 299 301 302 304 304 306 307 308 310 311 314 313 314 314 317 322 326 326 326 326 326 325 325 325 325 325 326 325 325 324 324 322 320 319 320 318 317 319 318 318 318 319 318 317 313 310 308 311 314 314 314 313 313 315 317 317 317 318 317 317 317 317 318 318
289 289 289 289 290 290 290 291 291 292 293 294 294 295 296 296 296 295 295 297 299 299 300 300 300 302 302 304 305 306 307 309 309 309 309 310 312 314 320 326 326 326 325 325 325 325 325 325 325 325 324 324 324 323 322 320 320 319 318 317 318 318 318 318 318 317 313 310 311 312 314 312 310 315 315 314 316 317 318 318 317 316 317 317 318
288 289 289 289 289 289 289 290 290 290 291 292 293 293 294 295 294 295 295 295 297 298 298 297 298 299 299 301 302 302 303 304 305 306 306 306 308 311 313 314 321 326 324 325 325 325 325 325 325 325 325 324 325 324 322 323 322 322 321 320 317 317 317 317 317 316 316 315 311 313 314 312 312 312 310 312 313 314 316 317 317 317 317 317 318
287 288 288 288 288 288 288 288 289 290 290 290 291 291 292 293 293 294 294 294 295 295 295 295 295 296 297 298 299 300 301 301 302 303 303 304 305 307 308 310 313 317 323 325 325 325 325 325 326 326 325 325 325 325 322 322 323 322 322 321 320 319 317 316 316 317 316 313 313 313 315 315 315 314 316 313 314 315 316 316 317 318 318 318 318
Wind_Speed
8 11 9 15 16 17 18 17 17 17 17 19 19 20 19 18 18 17 17 17 16 15 14 13 12 13 12 12 13 13 13 13 13 13 13 13 14 15 14 13 13 13 12 13 13 13 13 13 13 14 14 14 14 15 15 15 15 15 16 16 16 16 15 15 15 14 12 14 15 15 15 15 15 16 13 13 15 14 10 9 8 6 5 10 13
12 11 9 11 17 16 18 17 17 17 16 17 19 19 19 17 17 16 16 16 16 15 14 14 12 13 12 12 14 13 13 13 13 13 13 12 12 15 14 13 13 13 12 12 12 13 13 13 13 13 14 14 14 14 14 15 14 15 15 16 16 15 15 14 14 12 12 13 14 15 14 15 15 15 14 13 12 13 10 9 8 6 3 14 13
11 10 9 12 16 16 18 18 18 18 17 16 16 17 17 17 17 16 16 16 15 15 15 14 13 13 12 14 13 12 12 12 13 12 12 13 13 14 14 14 14 13 13 12 12 13 13 13 13 13 14 14 14 14 14 13 14 14 15 15 15 15 15 14 13 12 12 12 11 11 10 15 14 14 15 15 14 13 10 10 6 5 7 14 11
13 10 9 13 16 16 17 18 18 18 17 17 17 16 14 16 17 16 16 16 15 14 14 15 14 13 13 15 13 11 11 12 13 13 12 12 12 13 14 14 14 14 14 13 11 10 12 14 14 14 14 15 14 13 13 13 13 14 14 14 14 14 13 13 13 12 11 11 10 8 4 4 9 14 13 13 14 11 6 12 10 10 11 11 12
13 10 9 10 12 14 16 18 19 18 18 18 16 15 15 15 16 16 16 16 15 14 15 15 14 13 14 14 12 11 11 12 12 13 12 12 12 12 11 11 11 9 14 15 14 13 11 14 14 14 14 14 13 12 12 11 12 12 13 13 13 14 13 13 12 11 10 10 10 7 4 4 4 11 11 12 11 10 9 9 10 10 11 9 11
12 11 9 9 10 12 16 16 18 19 18 18 16 15 16 16 16 16 16 16 15 16 16 15 15 15 14 14 12 12 12 12 12 12 13 12 12 11 11 13 11 12 13 16 15 14 13 14 14 14 12 13 12 11 11 11 11 11 12 12 12 12 13 14 13 11 9 8 7 4 4 4 4 5 12 10 10 8 10 9 11 11 11 11 10
14 10 10 9 8 11 16 16 18 19 18 18 17 16 16 15 15 16 16 16 16 16 16 15 15 16 15 14 12 12 12 13 12 13 13 13 13 12 12 12 12 13 13 14 14 15 14 14 14 13 13 12 11 10 9 9 9 10 10 11 10 10 9 6 5 6 8 5 3 4 5 4 4 2 10 9 9 10 9 9 10 10 10 10 10
9 9 10 9 8 12 16 16 16 19 19 18 17 17 16 16 15 15 15 16 16 15 15 15 15 16 14 13 13 13 13 14 14 14 14 12 12 12 13 13 14 14 13 14 15 12 12 12 12 11 11 11 10 9 8 7 7 8 9 10 9 7 6 4 2 1 5 3 3 3 4 3 3 2 9 9 8 9 10 10 10 9 9 10 10
9 9 10 9 9 16 16 16 16 19 20 19 19 18 17 16 15 15 15 14 14 14 14 15 14 14 14 14 14 14 14 14 14 15 15 15 14 14 14 14 15 15 14 13 14 13 12 9 10 12 11 11 10 8 7 5 5 7 8 8 8 6 4 1 1 4 6 4 3 3 3 3 3 3 8 9 9 10 10 8 7 8 8 8 8
9 8 8 8 9 16 16 16 16 18 19 19 19 18 17 16 16 15 14 14 13 14 14 14 14 13 14 14 15 15 15 15 15 15 16 16 15 15 14 15 15 15 14 14 13 12 11 10 9 8 11 10 9 8 7 4 4 7 7 7 6 7 6 7 7 7 5 4 3 3 3 4 3 3 6 9 9 10 9 8 6 5 5 6 6
10 8 7 7 10 16 16 16 16 18 20 20 19 17 17 16 15 14 14 13 13 13 13 13 13 14 14 14 15 15 15 15 16 16 16 16 16 16 16 15 15 14 13 12 11 11 11 9 9 8 7 9 8 8 7 4 3 6 6 5 8 8 9 9 8 5 5 5 3 3 4 6 3 1 8 9 10 11 9 8 8 7 6 6 5
10 8 7 7 11 15 15 15 15 17 19 19 19 18 16 15 14 14 13 12 12 12 12 13 13 14 14 15 15 15 15 15 16 16 16 16 16 16 16 15 13 13 12 12 12 12 11 10 9 7 8 8 8 7 6 4 4 5 5 5 8 8 8 8 6 6 5 4 4 3 4 4 3 4 9 9 9 9 9 9 8 8 7 6 6
10 9 8 7 8 13 14 14 15 16 17 17 17 17 16 16 15 14 13 13 12 12 12 12 13 13 14 15 15 15 15 14 13 16 15 15 15 15 15 14 12 11 11 12 12 10 10 10 10 9 8 8 8 7 5 4 3 4 4 5 8 7 6 7 4 5 5 4 3 4 4 3 3 7 8 8 8 7 7 7 7 7 7 6 6
11 10 9 8 7 12 13 13 14 15 15 15 16 15 15 16 15 15 14 13 13 12 12 12 13 13 14 15 15 14 14 15 14 13 14 14 14 14 13 12 11 10 11 11 10 10 9 9 9 10 9 9 9 8 6 4 3 4 4 5 7 6 6 5 5 4 4 4 3 3 3 2 3 8 6 6 7 6 6 6 5 6 6 6 5
12 11 10 9 8 8 13 13 13 13 13 13 14 14 14 15 14 13 12 12 12 13 13 12 13 14 14 13 14 12 14 12 12 11 12 11 11 13 13 12 11 11 11 10 10 9 9 9 9 9 9 10 9 9 8 5 4 3 4 5 6 5 6 4 3 3 3 3 3 3 3 2 6 7 6 5 5 6 6 5 5 5 5 5 5
12 12 10 9 9 8 7 12 13 13 12 12 13 13 13 14 13 13 13 13 13 12 12 12 13 13 14 15 13 12 11 12 11 11 11 11 11 12 12 13 12 11 11 10 10 9 9 9 9 9 9 10 9 8 7 4 3 4 4 4 5 6 6 4 4 4 2 2 2 2 3 2 7 6 6 5 5 4 5 5 6 5 6 5 5
10 10 11 10 10 8 7 8 9 12 11 10 11 12 12 12 13 12 12 12 11 11 11 12 12 14 13 12 12 10 9 13 12 11 10 11 11 11 11 12 13 12 11 11 11 11 10 10 10 9 8 9 8 7 6 3 3 4 4 3 5 6 6 5 4 4 3 2 3 2 3 2 5 6 6 6 6 5 5 6 6 7 6 7 6
9 11 10 10 9 8 8 7 8 7 6 8 10 11 11 11 11 11 11 11 10 10 10 11 11 11 13 11 10 11 10 12 11 10 9 8 8 9 10 12 13 13 12 12 12 12 11 11 10 10 10 9 9 7 5 4 3 3 3 3 4 6 5 4 3 3 3 1 2 1 2 5 6 5 5 5 5 5 6 6 6 6 9 9 8
9 9 9 10 9 8 7 7 7 6 6 5 5 8 10 10 11 11 11 11 10 10 10 9 11 9 9 10 10 9 9 10 10 10 9 8 7 8 9 10 13 13 13 13 13 12 12 10 10 10 9 9 9 8 7 6 4 2 2 3 3 4 4 3 3 2 1 2 1 2 2 5 7 6 5 5 5 5 6 8 8 8 8 8 7
8 9 9 9 9 9 7 7 7 6 5 5 6 6 8 10 9 10 11 10 11 11 11 10 9 12 9 8 9 7 7 7 10 7 9 8 7 5 6 5 9 12 13 13 13 12 11 11 10 11 11 9 9 9 8 6 4 3 1 1 2 2 2 1 1 2 3 1 1 2 4 7 6 6 6 6 6 7 7 7 8 8 8 8 9
6 8 9 9 9 9 8 7 6 7 6 5 5 6 7 10 8 9 10 10 10 10 10 10 9 9 9 10 6 4 4 4 5 4 7 5 7 7 6 5 6 12 11 11 11 11 11 11 11 12 11 11 10 9 7 6 5 4 3 1 1 1 1 0 1 0 2 2 1 2 4 7 8 8 8 8 8 8 8 9 10 10 10 10 10
7 7 7 9 9 8 9 8 7 8 7 6 5 4 5 7 6 5 5 7 7 8 7 6 6 5 7 7 5 5 5 4 4 5 3 4 5 8 6 6 6 9 10 11 10 10 11 11 11 11 10 8 10 6 4 5 5 5 4 1 2 2 2 3 2 2 2 3 2 3 4 6 9 10 10 10 10 10 10 10 11 12 13 13 12
8 7 7 9 8 8 8 8 8 8 8 6 5 5 5 5 5 5 5 6 6 6 5 5 5 5 6 5 5 4 4 3 4 4 4 6 5 7 7 7 8 8 7 9 8 9 11 11 12 10 9 8 7 5 4 3 3 5 2 0 2 3 4 3 3 3 3 3 3 6 6 7 9 11 11 12 12 12 12 12 12 12 13 14 14
8 7 7 7 7 8 9 8 8 8 8 6 5 5 5 5 5 5 5 5 5 5 5 5 5 5 6 6 5 5 4 5 5 6 5 3 4 6 8 8 8 7 7 6 6 7 11 11 10 10 5 5 5 4 4 3 3 2 2 2 3 4 4 5 4 5 4 3 4 7 8 8 10 12 13 13 13 13 12 13 13 13 14 14 15
7 7 6 8 8 8 8 8 8 8 8 7 7 6 5 5 5 5 5 6 5 5 5 5 6 6 6 5 5 4 5 5 4 4 4 3 3 3 3 3 3 3 3 3 3 4 5 4 4 4 5 5 5 5 5 4 4 2 3 4 3 4 4 5 5 5 5 5 5 8 8 10 12 13 14 15 15 15 15 14 15 15 15 15 15
6 7 8 8 9 8 9 8 8 8 8 8 8 7 7 6 6 6 5 5 6 6 6 6 6 6 6 6 6 5 5 5 5 5 5 4 4 4 4 4 3 4 3 3 3 3 3 4 5 5 5 5 5 5 4 5 5 4 3 4 5 5 5 5 5 5 5 5 5 9 9 9 11 14 16 16 16 16 16 16 15 16 16 15 16
7 7 8 8 9 9 9 8 9 8 8 7 7 7 7 7 6 6 7 6 5 6 6 6 6 6 6 6 7 6 6 6 5 5 6 5 5 5 5 4 4 4 4 4 3 3 5 4 4 4 5 4 4 4 4 4 4 4 4 5 5 5 5 5 5 5 5 5 6 10 10 10 11 14 16 16 17 17 17 18 17 16 16 16 17
7 7 8 8 9 10 10 10 9 9 8 8 8 8 7 7 7 7 7 7 7 6 6 6 6 6 6 6 6 7 7 6 6 6 6 5 6 6 6 5 5 5 5 5 5 4 3 4 4 3 4 4 4 5 5 4 5 4 4 5 5 5 5 6 6 5 5 5 5 8 10 10 11 12 15 17 18 18 18 18 18 17 18 18 18
8 8 9 9 10 10 10 11 9 10 9 8 8 8 8 7 7 7 8 8 7 7 7 6 6 6 6 6 6 6 6 6 7 6 5 6 6 6 5 6 5 6 5 5 6 5 4 4 4 4 4 5 5 5 5 5 4 5 5 6 5 6 6 6 6 7 6 6 6 7 10 10 10 12 15 17 18 18 19 19 18 18 19 19 19
9 9 10 9 10 10 11 12 11 10 9 8 8 8 8 8 8 8 8 7 8 7 7 7 6 7 7 7 7 7 7 7 7 6 6 6 6 5 5 5 6 5 5 6 5 6 5 5 4 4 4 5 5 6 5 6 5 4 5 6 6 7 7 7 7 7 6 6 6 6 10 11 11 11 14 15 17 19 19 19 20 19 19 19 19
5 6 7 9 10 10 11 11 11 10 9 9 8 8 7 8 8 8 8 8 8 7 7 7 7 7 7 8 7 7 7 6 6 7 6 6 6 6 6 5 5 5 6 6 5 6 6 6 6 6 6 6 6 6 6 6 6 5 5 6 7 6 6 6 6 6 6 6 6 6 7 11 12 12 12 15 17 19 20 19 20 19 19 19 19
11 9 5 6 8 12 12 11 11 10 10 9 9 9 8 9 8 8 8 8 8 8 7 7 7 7 7 8 7 7 7 7 7 6 7 7 6 7 6 6 6 6 6 6 6 6 6 6 6 6 6 6 6 6 6 6 6 7 6 6 6 6 6 7 7 6 6 6 6 6 6 7 10 12 13 13 16 18 18 19 20 20 20 20 20
4 8 10 5 9 11 10 11 11 10 11 10 7 8 8 8 8 8 8 8 8 8 8 8 7 7 7 8 8 8 7 7 7 7 7 7 7 7 7 7 7 6 6 7 7 6 5 5 6 5 5 5 5 6 5 6 7 7 6 6 6 6 6 6 6 6 6 6 7 7 6 7 7 10 14 15 15 15 17 19 19 20 20 20 20
7 1 3 9 8 5 7 8 10 10 10 8 7 6 4 6 6 6 8 7 7 8 8 8 8 7 7 7 8 8 8 7 7 7 7 7 7 8 8 8 7 6 6 6 7 6 6 6 7 6 6 6 7 7 7 7 7 7 7 6 6 6 6 6 7 7 7 7 7 6 7 6 6 7 7 12 14 14 15 17 18 19 19 20 21
16 15 11 10 10 1 5 6 9 10 8 4 5 5 3 3 5 3 3 6 8 7 7 7 7 7 7 7 8 8 8 7 7 8 8 7 7 7 8 7 7 7 7 7 7 7 7 8 7 7 7 7 7 7 7 7 7 7 7 6 7 6 6 7 7 7 7 7 7 6 7 7 7 7 7 7 8 13 14 15 17 18 19 19 20
14 12 13 16 14 15 10 0 6 8 10 10 9 8 8 7 6 7 5 5 5 7 7 7 8 7 8 8 8 8 8 8 7 7 7 8 7 8 8 7 7 6 7 7 7 7 7 7 7 7 7 7 6 7 6 6 6 7 6 6 6 6 7 6 7 7 7 7 7 7 7 7 7 7 7 7 7 8 13 14 15 17 18 18 19
16 17 16 15 16 14 19 20 14 3 1 5 7 7 8 7 5 4 4 1 3 4 6 7 7 8 8 8 8 9 9 8 8 7 7 8 8 8 7 7 6 7 7 6 7 7 7 7 6 7 6 7 6 6 5 5 5 6 6 6 6 6 7 7 7 7 7 7 7 7 7 7 7 8 7 7 7 7 10 15 15 16 17 18 18
14 16 17 16 13 14 14 15 14 17 10 4 1 5 7 4 4 6 7 7 8 5 4 3 6 8 8 9 9 9 9 9 9 7 7 7 7 8 7 7 7 7 6 6 7 6 6 6 7 6 6 6 6 6 6 6 5 6 7 7 7 7 7 7 7 7 7 9 8 8 8 7 7 8 7 8 8 8 8 10 15 17 18 17 17
13 17 19 17 16 16 15 15 18 16 14 13 11 7 3 1 2 2 2 3 4 3 5 5 2 3 7 10 10 9 10 10 9 9 8 7 6 6 6 7 7 7 7 7 6 6 5 5 6 6 4 6 6 7 7 6 6 6 7 8 7 7 7 6 7 7 7 8 9 9 7 9 7 8 9 8 8 7 8 7 7 8 10 15 16
18 18 20 20 19 19 14 17 17 14 14 13 11 11 3 3 3 2 2 4 4 3 6 7 4 4 7 8 9 9 9 9 10 9 8 8 7 6 7 6 6 6 7 7 7 6 7 6 7 7 6 5 5 5 4 4 4 6 8 7 6 6 7 7 7 8 8 9 9 8 9 9 8 10 9 8 7 8 8 8 7 8 8 11 15
22 21 21 21 20 16 17 20 14 14 13 13 13 11 10 6 4 3 3 3 4 1 3 3 2 4 3 4 6 8 9 9 9 9 9 8 7 7 6 6 6 7 7 8 8 8 8 8 7 6 8 7 6 4 3 3 3 6 6 6 7 7 9 8 10 9 10 9 8 9 9 9 10 10 9 7 8 8 8 8 8 8 8 7 10
18 19 19 17 17 17 19 14 14 16 16 13 9 11 10 10 7 3 3 1 2 1 1 2 4 3 2 3 3 5 5 9 9 9 9 8 7 6 7 8 7 7 8 7 6 7 7 7 5 5 5 8 7 5 4 4 3 6 6 7 7 7 9 9 11 12 12 10 9 9 10 10 12 10 7 7 8 8 9 9 8 8 8 8 8
15 17 16 17 16 18 15 15 15 14 15 14 13 12 11 11 10 9 6 2 2 3 2 1 1 5 3 2 3 3 3 6 6 8 8 8 8 8 8 7 7 7 7 7 6 7 8 9 8 9 6 4 6 3 5 7 6 0 0 3 8 7 4 3 6 10 9 10 9 11 12 10 14 10 7 7 9 9 8 8 9 9 9 9 8
12 16 16 15 15 15 15 17 16 13 12 15 13 14 12 8 11 12 13 12 10 11 10 7 4 4 5 4 5 4 3 3 5 7 6 7 8 9 8 6 8 7 8 8 7 8 7 7 8 9 8 8 6 5 6 6 5 2 6 6 3 1 10 5 4 6 7 9 9 10 8 10 11 9 6 9 10 9 9 8 9 9 9 9 8
15 13 13 15 13 15 14 12 10 12 11 15 16 15 14 16 13 15 15 14 14 13 13 14 15 12 8 6 6 6 6 6 3 5 5 8 7 8 8 8 8 7 7 8 8 9 9 8 10 9 10 10 8 5 4 7 7 6 6 1 2 1 6 6 6 7 2 1 4 8 9 10 9 8 7 10 9 9 8 8 9 8 9 8 8
15 13 12 14 13 12 15 15 11 9 12 15 16 14 14 14 17 17 16 13 13 14 14 15 12 12 13 13 15 13 10 7 6 5 7 7 9 8 8 8 7 7 7 8 9 7 8 9 10 9 11 11 11 8 7 6 10 10 11 10 6 5 2 2 3 7 5 5 8 3 5 6 7 7 7 9 9 8 7 9 8 9 8 8 8
13 11 12 13 14 14 12 13 13 12 12 13 15 15 15 14 16 14 12 12 9 9 10 9 10 12 10 13 12 12 16 16 14 12 7 7 7 8 8 9 9 9 8 9 9 10 9 9 8 9 9 9 9 10 11 8 6 9 11 13 14 11 6 5 6 2 12 4 2 4 4 3 5 6 9 9 9 8 7 7 8 8 7 7 7
11 12 12 12 14 14 12 10 9 12 13 14 15 14 12 13 15 14 12 12 12 11 12 10 10 10 11 13 11 12 14 14 15 15 17 17 13 7 7 8 9 10 9 9 10 10 9 8 10 11 10 10 10 10 10 9 9 7 9 11 12 13 13 13 12 10 8 12 17 4 7 7 6 7 8 9 8 8 8 7 8 7 7 8 8
12 12 11 11 11 12 14 14 14 12 11 14 13 13 13 13 12 12 13 11 10 9 8 10 12 12 11 11 14 13 14 14 14 16 16 17 15 15 15 9 8 9 8 8 9 10 12 12 11 10 10 10 10 10 10 10 10 10 7 10 11 11 10 11 12 11 11 10 13 15 15 2 4 8 8 7 8 7 8 8 8 8 8 8 7
10 10 11 12 12 11 14 15 15 13 13 13 12 12 13 13 14 14 15 12 10 9 9 13 13 11 12 14 12 11 12 13 14 15 17 17 16 16 14 16 15 10 7 8 9 9 10 11 12 12 13 13 11 11 12 11 10 10 11 8 9 9 10 10 10 11 11 13 13 14 11 8 11 8 1 6 6 5 7 7 8 8 8 8 7
10 11 12 12 12 13 14 15 14 13 14 15 15 15 13 12 12 13 13 13 13 12 12 14 13 13 13 13 13 12 12 12 13 14 13 15 17 15 15 16 15 16 10 7 8 9 10 11 11 12 13 14 12 12 12 12 10 10 11 9 11 10 10 9 8 8 10 8 9 13 15 9 9 13 11 3 7 7 7 7 9 9 8 8 8
Wind_Direction
177 155 155 163 165 165 165 161 161 157 157 151 152 154 152 149 147 145 144 141 141 141 137 136 139 128 128 129 129 128 124 124 125 123 125 128 129 128 129 130 130 131 128 125 126 122 124 123 115 114 110 106 106 105 100 96 97 98 98 98 98 98 98 99 100 101 97 95 93 86 86 90 98 97 98 98 88 75 59 52 43 42 56 94 91
169 157 157 162 165 165 165 161 159 158 158 159 156 156 152 152 151 149 145 146 146 146 140 141 142 135 135 138 130 130 130 128 126 125 123 126 135 132 134 133 132 129 130 127 128 128 131 128 122 118 114 109 107 102 99 100 102 102 103 103 103 103 102 102 102 98 94 96 92 88 86 92 95 95 98 99 94 89 82 69 56 56 79 85 83
147 156 157 161 164 165 165 161 160 158 159 161 161 163 159 154 155 152 149 151 149 149 142 145 147 141 141 141 131 134 134 132 131 129 131 137 144 138 139 139 136 135 137 135 134 137 133 129 123 118 114 109 105 102 102 103 105 105 106 107 107 108 108 109 107 103 97 83 66 59 70 93 96 99 102 99 93 95 97 100 100 77 83 86 86
146 158 157 161 163 165 164 162 161 161 161 160 161 161 162 157 157 153 153 152 146 150 150 149 148 144 154 134 133 137 138 137 135 137 140 142 146 146 143 147 146 143 133 119 112 116 130 127 122 118 112 109 107 104 106 107 108 109 109 109 109 109 109 108 107 105 98 89 76 66 56 47 92 107 104 88 89 68 83 114 106 98 93 97 94
148 151 158 160 161 165 164 164 162 161 162 161 161 161 159 159 157 156 155 148 148 156 153 150 149 149 152 130 135 139 141 138 141 143 144 147 148 143 139 132 129 129 127 123 124 124 122 122 123 117 110 107 106 107 109 111 110 111 111 110 111 109 108 106 102 100 93 87 86 76 59 66 70 95 93 93 81 72 57 73 88 100 102 89 91
149 150 155 156 159 163 164 164 162 161 162 162 161 161 160 160 160 159 156 148 156 156 155 150 153 154 154 137 136 141 144 140 141 140 140 145 146 137 134 137 134 120 121 123 123 122 120 114 114 115 110 106 106 106 107 111 112 113 111 110 114 118 113 107 99 93 92 86 85 91 79 72 70 90 94 92 88 83 78 96 97 93 101 109 111
147 150 151 154 156 163 164 161 161 162 161 161 163 162 162 161 162 161 155 154 159 155 154 154 157 156 150 136 139 144 142 139 137 138 139 141 142 135 133 136 129 119 119 112 112 119 115 116 119 123 119 110 108 107 109 110 114 115 113 111 111 111 112 97 71 90 101 97 99 107 102 93 88 81 98 100 110 106 88 101 108 97 91 83 71
144 149 151 152 156 161 159 158 160 161 159 161 163 162 164 164 164 160 156 161 160 156 155 156 161 158 146 142 140 143 143 142 140 134 133 136 132 134 136 132 131 126 123 116 109 105 113 114 115 112 114 118 114 111 109 109 110 112 110 104 98 90 84 73 52 133 148 130 134 127 115 110 110 111 105 109 116 113 107 97 85 96 83 71 58
149 150 149 151 158 157 156 157 160 162 160 161 163 165 167 165 165 158 161 165 161 157 156 158 162 155 148 145 143 142 142 140 139 136 136 138 132 134 134 134 132 127 123 119 111 111 110 110 116 121 123 124 123 116 112 110 107 99 91 92 92 90 82 46 294 166 137 146 143 147 128 125 119 112 117 117 110 97 88 78 79 86 82 80 82
147 149 151 152 158 156 155 157 160 161 160 160 162 166 167 165 164 160 165 167 161 159 158 161 162 156 153 148 146 143 143 138 138 138 138 137 134 133 131 135 129 126 121 113 111 110 114 118 119 123 129 129 129 126 120 113 99 78 73 74 74 57 32 27 73 102 119 129 146 152 137 127 118 122 128 124 116 107 105 105 102 89 85 97 107
148 149 151 154 157 155 156 159 159 160 159 160 162 164 164 165 163 165 168 167 164 164 164 159 156 156 155 151 147 145 143 140 138 138 137 136 137 136 136 133 133 132 130 128 128 124 120 120 121 132 133 132 134 137 130 129 96 72 61 56 53 38 28 41 71 97 123 138 147 164 136 119 113 131 125 125 120 118 121 122 116 113 120 124 119
148 147 151 155 157 155 157 158 157 158 160 161 162 164 163 165 166 167 167 166 170 169 156 155 161 161 159 153 149 147 142 141 139 139 138 139 140 139 138 139 138 136 132 130 126 124 128 131 132 132 144 145 142 149 137 132 96 68 57 49 52 40 37 46 66 99 123 139 147 131 117 120 138 139 127 129 130 129 136 136 138 135 131 133 136
148 148 150 155 154 157 157 158 157 159 161 161 161 161 163 166 167 167 167 170 171 163 159 162 164 162 157 154 156 152 148 137 135 137 141 140 141 142 141 141 141 138 135 128 130 132 134 136 135 142 145 149 148 148 146 129 97 69 52 51 59 44 39 55 69 95 111 118 119 117 123 142 160 139 135 136 142 145 145 149 143 142 137 136 141
148 149 150 152 155 157 157 158 158 161 162 162 158 160 161 164 165 166 169 171 165 163 165 166 162 162 163 159 159 157 144 139 140 140 142 143 141 138 136 136 136 131 132 137 138 141 140 137 141 144 150 156 158 151 149 139 104 65 55 55 63 56 41 58 70 94 117 122 125 135 134 155 206 144 146 144 150 155 151 156 149 149 148 139 148
149 151 151 151 154 158 158 158 160 162 164 161 157 159 159 161 163 164 162 161 161 164 170 169 163 167 163 166 159 152 143 143 143 140 138 138 140 143 142 141 140 139 140 143 144 144 144 147 148 152 155 159 161 159 157 133 103 80 57 59 62 60 59 61 74 79 106 128 142 136 149 163 156 148 151 158 153 157 167 174 157 159 166 166 158
147 148 149 152 154 157 157 160 159 161 166 163 157 159 161 161 162 162 163 164 162 165 174 168 171 163 167 169 165 158 147 147 143 142 143 144 147 149 150 147 146 147 148 153 147 151 151 153 154 152 155 162 167 157 155 128 100 86 65 64 63 58 52 61 75 89 88 125 137 146 161 181 153 155 161 163 172 181 188 178 199 185 181 183 182
141 143 149 156 156 156 158 159 159 160 163 160 157 161 163 164 163 163 162 163 165 166 170 164 175 167 168 180 165 161 163 149 147 146 150 152 153 155 155 152 152 153 155 153 152 155 159 159 158 152 151 156 148 154 152 109 85 83 75 60 69 61 45 55 54 69 83 146 154 177 193 210 166 166 176 186 180 198 205 214 217 192 207 205 205
143 148 152 155 159 158 156 155 154 155 156 152 157 161 164 164 164 162 157 162 162 162 165 164 167 172 170 180 166 163 166 151 150 147 151 149 148 151 153 153 157 159 158 157 158 160 164 166 161 156 154 160 164 159 148 129 102 73 62 69 60 67 51 41 55 50 82 41 155 201 219 195 173 183 183 196 200 213 220 228 233 226 214 219 230
147 151 150 155 160 158 157 152 154 149 147 146 151 161 161 159 160 158 158 160 158 158 162 162 162 163 173 167 172 164 159 149 149 151 153 153 152 154 154 157 166 164 163 161 163 166 170 169 165 161 161 159 155 150 154 142 126 103 72 47 52 70 81 44 19 21 37 122 216 186 239 223 184 192 205 206 210 216 236 236 237 231 237 244 249
150 151 155 161 159 159 156 154 153 149 149 149 148 150 152 152 155 156 158 159 158 158 156 155 150 159 184 172 173 152 154 150 152 152 153 155 156 158 163 144 169 168 167 166 168 168 176 172 169 170 166 165 159 158 157 151 161 158 145 66 69 37 93 105 37 335 321 303 191 206 226 230 221 217 219 226 228 232 235 248 252 259 257 261 261
151 160 160 161 162 159 157 156 158 153 150 149 148 149 155 150 153 156 156 154 155 155 152 154 152 165 161 169 157 134 140 143 145 151 157 158 166 171 168 160 158 168 169 170 169 169 174 182 180 178 178 176 167 163 163 167 172 181 195 196 356 1 260 182 155 259 296 282 260 206 237 244 241 243 240 243 243 246 247 249 252 253 259 262 266
159 161 169 161 160 162 162 158 159 161 153 150 151 146 152 152 152 153 152 149 148 147 147 150 148 149 154 151 150 150 146 148 147 150 157 165 172 176 167 167 169 174 171 167 171 170 175 185 188 191 190 186 154 156 167 181 191 198 209 170 327 273 267 263 252 219 259 277 257 264 234 245 256 258 253 252 255 256 259 258 259 259 257 259 259
158 163 165 167 166 162 164 164 163 161 154 153 149 145 152 151 151 152 150 148 148 148 147 144 143 147 145 150 143 141 148 151 155 161 166 167 172 174 169 166 170 168 167 163 171 177 176 187 189 192 193 156 148 158 172 185 216 239 191 270 289 276 287 285 278 260 244 244 249 248 242 245 254 260 264 263 263 264 263 263 263 263 262 260 260
158 164 160 167 166 168 171 167 163 161 157 157 149 151 155 153 154 154 152 151 149 146 147 145 148 149 153 154 152 152 153 157 168 167 150 157 174 177 174 167 170 170 172 170 164 170 183 191 184 193 165 137 152 169 174 190 208 227 213 247 261 271 271 270 270 268 264 259 246 241 238 243 252 260 264 268 268 268 268 267 267 267 264 262 261
157 148 158 170 172 173 168 168 165 164 163 159 156 162 159 150 159 157 158 158 153 154 152 153 157 157 156 155 158 156 161 164 163 157 151 155 158 174 173 167 160 163 154 157 157 171 156 165 155 146 152 155 164 182 181 198 217 211 221 235 252 261 264 265 262 261 262 259 251 240 239 246 256 260 261 262 263 265 267 269 269 267 264 261 259
146 159 171 171 177 177 174 170 168 172 171 165 166 162 158 164 164 166 159 163 164 163 160 164 166 165 163 162 158 160 169 171 168 169 168 166 171 179 187 174 167 169 150 161 168 169 163 171 161 155 168 170 178 187 194 195 208 217 225 231 239 251 253 261 257 251 249 247 249 244 241 246 255 263 265 264 262 262 265 269 269 266 262 261 260
168 173 172 177 178 178 180 171 173 174 177 172 161 159 171 173 167 166 165 172 173 166 177 176 177 171 169 165 162 172 175 180 181 178 179 175 180 185 187 183 183 179 173 163 177 197 167 179 184 183 177 176 198 201 204 209 207 215 227 236 235 240 246 251 255 253 245 235 242 248 248 245 246 257 263 262 262 264 267 268 268 266 263 261 261
166 175 176 178 180 181 180 176 177 175 179 176 166 168 175 171 174 170 178 175 171 182 184 186 178 180 176 176 173 171 176 183 191 187 189 179 189 189 188 188 186 194 185 173 177 193 186 183 192 207 198 205 206 219 223 223 221 212 230 238 241 242 241 241 244 246 251 250 239 243 248 250 249 251 257 261 263 265 267 268 267 267 265 264 263
175 176 180 179 184 179 177 180 180 181 180 175 175 177 173 174 176 179 186 177 182 186 185 178 181 186 187 182 177 177 181 183 191 195 181 191 194 192 186 195 192 198 185 197 183 188 194 190 200 209 211 216 221 232 233 238 228 224 223 239 238 241 243 243 241 242 238 236 241 243 246 250 252 254 255 260 265 268 269 269 268 267 267 267 266
198 178 178 184 181 177 177 180 180 185 181 176 180 178 179 179 183 185 186 179 192 187 179 184 188 182 190 191 190 186 184 186 192 192 185 196 196 195 191 196 198 197 184 200 208 189 199 199 207 216 219 226 227 235 232 244 239 225 225 236 242 239 235 235 237 235 235 229 229 234 240 244 246 246 250 254 261 267 268 268 268 268 268 269 269
242 193 188 182 180 178 180 180 183 181 178 181 179 182 180 188 183 185 183 187 189 186 187 189 188 192 193 191 193 195 187 185 188 189 192 194 195 193 199 196 204 203 191 203 201 202 199 205 206 211 216 222 229 233 229 240 248 243 228 227 237 232 232 230 234 235 236 237 236 237 241 241 245 249 250 253 257 263 266 266 266 267 267 268 267
312 278 213 181 179 181 181 180 178 180 179 185 178 179 187 191 186 184 188 188 183 189 191 192 194 198 196 194 196 195 191 189 184 186 189 192 197 197 199 196 207 205 197 201 200 206 203 209 215 217 218 217 228 234 230 230 244 246 242 230 229 227 231 229 229 231 238 244 242 246 247 249 251 253 255 256 259 260 261 263 265 265 266 267 268
235 306 318 303 186 186 179 180 176 175 181 179 180 187 188 187 186 190 189 185 189 189 192 195 197 200 200 201 201 201 194 188 188 183 186 192 195 196 199 203 205 204 200 203 204 204 213 220 229 226 230 229 235 245 241 234 240 242 233 234 228 236 238 247 252 252 250 250 248 246 248 246 247 252 254 255 256 256 258 259 260 262 264 265 266
301 201 289 281 272 191 184 172 173 178 190 181 174 175 205 200 192 191 188 181 192 192 196 195 196 198 200 205 206 207 200 195 183 185 185 191 197 198 198 202 205 205 203 201 205 204 209 213 225 218 231 224 227 231 230 237 235 240 242 244 246 248 249 250 248 246 245 246 245 244 244 242 244 247 252 254 254 255 255 256 256 257 259 262 264
20 357 334 292 282 242 168 182 171 174 165 134 138 158 97 160 211 226 202 179 203 207 199 197 196 199 197 205 209 209 207 199 190 181 186 188 193 200 202 203 199 200 200 203 201 207 206 213 211 218 227 227 226 224 219 226 231 239 243 243 247 248 248 245 245 249 245 245 242 242 239 239 238 243 248 249 252 251 251 253 256 256 256 257 261
15 6 9 12 8 356 339 30 164 171 172 173 177 156 185 195 183 207 187 177 206 211 208 202 198 199 200 202 205 210 210 207 199 182 182 188 191 199 204 199 198 193 201 199 198 205 207 214 213 205 214 230 222 238 226 237 239 248 248 247 247 244 246 247 251 251 247 247 243 243 240 241 242 242 244 247 248 247 246 249 250 254 256 254 256
22 14 11 12 8 7 22 9 351 350 58 190 172 166 179 188 171 174 226 186 198 213 220 213 203 199 199 204 202 205 210 208 205 198 181 187 193 198 202 202 196 196 197 198 200 202 197 209 218 212 206 220 218 236 240 235 245 247 249 248 247 243 244 242 244 246 249 245 244 240 242 244 244 246 245 249 250 250 249 246 249 250 252 254 255
23 25 21 18 7 12 19 14 10 5 341 293 264 183 194 135 137 173 184 186 215 209 218 249 228 204 198 203 200 203 208 208 206 204 198 192 192 193 194 197 196 200 202 198 210 202 201 199 220 220 212 217 226 230 244 250 245 252 252 248 248 241 245 245 243 244 241 248 245 245 241 242 241 242 244 245 246 246 247 248 247 249 251 251 251
24 27 26 20 21 18 15 18 15 4 2 2 354 321 325 192 143 132 169 210 241 195 216 220 221 268 213 201 197 199 205 207 207 202 201 199 198 198 192 192 190 197 200 206 214 210 207 203 211 226 219 222 221 222 228 234 252 257 256 254 251 250 253 251 252 252 249 250 251 252 249 248 242 244 245 244 245 242 243 240 239 244 251 249 246
31 24 24 22 18 17 16 24 15 0 357 8 6 3 339 295 234 157 245 235 225 201 223 224 205 218 231 212 197 200 199 204 208 207 205 199 197 202 200 190 191 191 200 208 216 207 208 208 219 212 219 235 235 232 215 219 259 259 262 268 258 261 259 252 251 247 249 248 250 250 250 251 244 249 243 241 240 242 242 243 238 240 245 248 246
32 23 28 26 21 14 20 23 8 8 9 5 6 2 356 344 319 300 263 304 273 245 260 281 274 253 265 274 224 203 199 204 205 204 209 203 203 201 198 197 192 198 204 214 207 208 209 206 209 199 207 223 240 213 224 174 238 281 263 270 281 252 252 252 254 253 247 248 246 248 250 252 248 249 243 234 237 238 240 240 240 240 241 241 245
25 26 31 25 21 23 26 12 13 13 12 6 360 359 2 345 333 301 298 249 275 306 310 351 285 299 320 313 309 302 248 208 203 205 206 201 202 202 203 203 195 203 212 213 213 214 213 215 206 220 215 215 235 188 198 138 240 247 287 299 290 278 252 245 249 251 247 247 245 245 248 245 251 247 242 230 239 237 239 241 242 243 241 237 239
34 34 27 23 21 28 22 17 19 14 9 10 11 2 344 356 9 4 340 312 356 7 357 19 240 258 251 278 319 283 294 302 267 217 203 207 204 202 208 209 202 197 204 215 214 221 216 215 208 214 224 228 235 200 180 178 244 120 176 328 287 326 324 310 269 261 256 251 243 244 245 247 250 244 232 229 240 239 242 240 241 239 239 239 236
34 35 28 22 25 24 24 24 23 12 8 16 14 3 346 342 25 30 24 23 18 6 12 2 345 309 288 270 252 269 296 265 288 295 267 216 206 207 209 208 210 199 198 207 208 217 218 222 219 221 217 228 222 233 171 174 197 138 277 228 252 79 306 285 303 281 231 239 239 246 248 249 252 247 229 239 242 241 241 233 239 236 239 237 232
36 31 28 29 26 19 16 15 19 17 13 14 20 6 6 20 20 25 25 20 22 20 16 13 6 352 339 343 317 314 298 289 271 265 276 276 244 219 212 211 209 206 202 209 211 213 211 214 214 218 214 222 232 224 206 186 203 193 221 288 311 287 237 292 332 286 353 309 246 237 243 249 252 248 235 243 244 241 240 238 238 239 238 235 233
35 28 30 30 25 23 20 17 13 17 19 20 21 22 19 24 31 28 22 16 17 17 15 3 354 2 3 356 2 355 334 303 280 252 256 256 257 248 229 215 215 210 206 213 216 211 210 211 212 216 221 217 225 224 230 200 211 212 219 233 213 200 206 246 8 298 313 244 269 263 258 252 258 260 249 249 246 244 234 242 235 239 234 232 230
31 24 29 28 29 27 20 21 23 22 20 25 22 29 25 25 39 40 33 27 18 17 6 4 6 3 358 4 3 3 7 0 357 345 317 269 264 265 246 229 220 216 211 216 218 216 214 211 207 212 223 225 220 230 227 220 210 222 216 221 230 238 231 286 263 329 312 316 248 282 287 246 250 256 255 252 253 248 244 234 240 239 236 228 229
27 31 31 28 29 28 21 17 22 27 25 23 30 30 34 26 35 36 34 30 22 8 5 3 16 13 3 8 7 8 6 7 6 6 4 357 342 299 269 262 245 231 223 219 223 222 219 215 209 214 220 222 220 225 234 220 209 225 215 226 229 232 234 240 247 256 265 293 296 251 234 277 288 257 248 258 252 250 250 238 240 236 235 231 224
28 28 29 29 29 27 27 25 26 22 20 25 31 30 32 31 36 33 34 32 21 5 356 11 20 18 1 9 16 7 5 6 8 6 4 358 353 350 341 309 272 265 246 239 232 226 221 218 213 213 221 225 223 225 228 228 215 227 202 222 229 234 236 232 235 227 232 252 265 280 285 280 260 262 266 245 251 248 245 248 237 234 234 234 223
28 27 30 29 26 25 29 29 27 24 19 23 26 29 32 28 32 29 29 24 21 4 9 20 22 12 8 15 16 10 4 4 5 7 2 358 355 351 349 347 329 287 266 253 248 241 235 231 224 218 216 219 217 217 223 229 226 224 219 214 216 229 230 234 228 226 232 225 248 270 270 292 301 280 224 302 282 253 256 250 246 237 233 233 226
26 28 29 26 23 24 26 29 27 23 21 21 23 28 31 30 31 28 25 21 16 13 13 20 17 16 16 17 15 6 358 5 4 2 2 357 353 352 354 347 343 340 312 277 254 250 243 235 233 231 226 221 221 223 224 230 231 227 222 216 225 220 223 232 232 219 220 225 237 253 269 254 261 287 278 236 256 261 249 245 245 242 237 233 227